Weather History for Shelton, WA

Change the Weather History Date:

Sunday, November 10, 2013

  Actual Average Record
Temperature  
Mean Temperature 46 °F -  
Max Temperature 51 °F 52 °F 63 °F (1973)
Min Temperature 39 °F 39 °F 24 °F (2012)
Degree Days  
Heating Degree Days 19    
Moisture  
Dew Point 43 °F    
Average Humidity 87    
Maximum Humidity 97    
Minimum Humidity 71    
Precipitation  
Precipitation 0.00 in - - ()
Sea Level Pressure  
Sea Level Pressure 30.11 in    
Wind  
Wind Speed 2 mph (NE)    
Max Wind Speed 8 mph    
Max Gust Speed -    
Visibility 10 miles    
Events      
Averages and records for this station are not official NWS values.
T = Trace of Precipitation, MM = Missing Value Source: NWS Daily Summary

Daily Weather History Graph

Daily Weather History Graph

Search for Another Location

Airport:

Trip Planner

Search our weather history database for the weather conditions in past years. The results will help you decide how hot, cold, wet, or windy it might be!

Date:

Astronomy

Nov. 10, 2013 Rise Set
Actual Time 7:09 AM PST 4:42 PM PST
Civil Twilight 6:36 AM PST 5:15 PM PST
Nautical Twilight 6:00 AM PST 5:52 PM PST
Astronomical Twilight 5:24 AM PST 6:28 PM PST
Moon 1:16 PM PST (11/10) No Moon Set
Length of Visible Light 10h 38m
Length of Day
9h 32m
First Quarter, 56% of the Moon is Illuminated
Nov 10
First Quarter
Nov 17
Full
Nov 25
Last Quarter
Dec 2
New
Dec 9
First Quarter

Hourly Weather History & Observations

Time (PST) Temp. Windchill Dew Point Humidity Pressure Visibility Wind Dir Wind Speed Gust Speed Precip Events Conditions
12:51 AM 44.6 °F - 42.8 °F 93% 30.08 in 10.0 mi Calm Calm - 0.00 in   Overcast
12:53 AM 45.0 °F - 43.0 °F 93% 30.09 in 10.0 mi Calm Calm - 0.00 in   Overcast
1:53 AM 44.1 °F - 42.1 °F 93% 30.09 in 10.0 mi Calm Calm - N/A   Overcast
2:53 AM 44.1 °F - 42.1 °F 93% 30.09 in 10.0 mi Calm Calm - N/A   Overcast
3:53 AM 44.1 °F 39.5 °F 42.1 °F 93% 30.08 in 10.0 mi North 8.1 mph - N/A   Overcast
4:53 AM 44.1 °F 40.1 °F 42.1 °F 93% 30.09 in 10.0 mi North 6.9 mph - N/A   Overcast
5:53 AM 45.0 °F 42.6 °F 42.1 °F 90% 30.09 in 10.0 mi NNE 4.6 mph - N/A   Overcast
6:53 AM 45.0 °F 43.5 °F 42.1 °F 90% 30.10 in 10.0 mi NNE 3.5 mph - N/A   Overcast
7:53 AM 45.0 °F - 43.0 °F 93% 30.11 in 10.0 mi Calm Calm - N/A   Overcast
8:53 AM 45.0 °F - 43.0 °F 93% 30.13 in 10.0 mi Calm Calm - N/A   Overcast
9:41 AM 46.4 °F - 44.6 °F 93% 30.11 in 10.0 mi Calm Calm - N/A   Overcast
9:53 AM 46.9 °F - 44.1 °F 90% 30.12 in 10.0 mi Calm Calm - N/A   Overcast
10:06 AM 48.2 °F - 44.6 °F 87% 30.12 in 10.0 mi East 3.5 mph - N/A   Overcast
10:39 AM 48.2 °F - 44.6 °F 87% 30.12 in 10.0 mi ENE 3.5 mph - N/A   Overcast
10:53 AM 48.9 °F - 44.1 °F 83% 30.13 in 10.0 mi East 5.8 mph - N/A   Overcast
11:53 AM 50.0 °F - 45.0 °F 83% 30.12 in 10.0 mi ENE 3.5 mph - N/A   Overcast
12:53 PM 51.1 °F - 43.0 °F 74% 30.11 in 10.0 mi NE 6.9 mph - N/A   Overcast
1:53 PM 51.1 °F - 43.0 °F 74% 30.11 in 10.0 mi NNE 3.5 mph - N/A   Overcast
2:53 PM 51.1 °F - 42.1 °F 71% 30.10 in 10.0 mi NNE 4.6 mph - N/A   Overcast
3:53 PM 51.1 °F - 43.0 °F 74% 30.10 in 10.0 mi NE 4.6 mph - N/A   Overcast
4:53 PM 48.9 °F - 43.0 °F 80% 30.11 in 10.0 mi NE 4.6 mph - N/A   Overcast
5:53 PM 48.0 °F - 43.0 °F 83% 30.11 in 10.0 mi Calm Calm - N/A   Overcast
6:53 PM 46.9 °F - 42.1 °F 83% 30.12 in 10.0 mi Calm Calm - N/A   Overcast
7:53 PM 46.0 °F - 42.1 °F 86% 30.12 in 10.0 mi Calm Calm - N/A   Clear
8:53 PM 44.1 °F - 41.0 °F 89% 30.12 in 10.0 mi Calm Calm - N/A   Clear
9:53 PM 42.1 °F 40.2 °F 39.9 °F 92% 30.13 in 10.0 mi North 3.5 mph - N/A   Clear
10:53 PM 41.0 °F - 39.9 °F 96% 30.12 in 8.0 mi Calm Calm - N/A   Clear
11:53 PM 39.9 °F - 39.0 °F 97% 30.12 in 4.0 mi Calm Calm - N/A   Clear